Mather AFB, CA

3:34 AM PDT on September 26, 2017 (GMT -0700)
Mather

Weather History for KMHR - March, 2013

Change the Weather History Date:

Friday, March 29, 2013

  Actual Average Record
Temperature  
Mean Temperature 62 °F -  
Max Temperature 75 °F 66 °F 82 °F (2015)
Min Temperature 48 °F 41 °F 35 °F (2007)
Degree Days  
Heating Degree Days 4    
Growing Degree Days 12 (Base 50)    
Moisture  
Dew Point 46 °F    
Average Humidity 62    
Maximum Humidity 94    
Minimum Humidity 34    
Precipitation  
Precipitation 0.00 in - - ()
Sea Level Pressure  
Sea Level Pressure 30.06 in    
Wind  
Wind Speed 4 mph (NNW)    
Max Wind Speed 7 mph    
Max Gust Speed -    
Visibility 10 miles    
Events      
Averages and records for this station are not official NWS values.
T = Trace of Precipitation, MM = Missing Value Source: NWS Daily Summary

Daily Weather History Graph

Daily Weather History Graph

Search for Another Location

Airport or City:

Trip Planner

Search our weather history database for the weather conditions in past years. The results will help you decide how hot, cold, wet, or windy it might be!

Date:

Astronomy

Mar. 29, 2013 Rise Set
Actual Time 6:54 AM PDT 7:26 PM PDT
Civil Twilight 6:27 AM PDT 7:52 PM PDT
Nautical Twilight 5:56 AM PDT 8:24 PM PDT
Astronomical Twilight 5:24 AM PDT 8:56 PM PDT
Moon 10:29 PM PDT (3/29) 8:09 AM PDT (3/29)
Length of Visible Light 13h 25m
Length of Day
12h 31m
Waning Gibbous, 93% of the Moon is Illuminated
Mar 29
Waning Gibbous
Apr 2
Last Quarter
Apr 10
New
Apr 18
First Quarter
Apr 25
Full

Hourly Weather History & Observations

Time (PDT) Temp. Dew Point Humidity Pressure Visibility Wind Dir Wind Speed Gust Speed Precip Events Conditions
12:47 AM 53.6 °F 50.0 °F 88% 30.08 in 10.0 mi NNW 5.8 mph - N/A   Clear
2:50 AM 50.0 °F 48.2 °F 94% 30.08 in 10.0 mi NNW 5.8 mph - N/A   Clear
3:55 AM 50.0 °F 48.2 °F 94% 30.08 in 10.0 mi NNW 6.9 mph - N/A   Clear
5:50 AM 48.2 °F 46.4 °F 93% 30.08 in 10.0 mi Calm Calm - N/A   Clear
6:45 AM 48.2 °F 46.4 °F 93% 30.08 in 10.0 mi NNW 6.9 mph - N/A   Clear
7:50 AM 48.2 °F 46.4 °F 93% 30.10 in 10.0 mi NNW 4.6 mph - N/A   Clear
9:48 AM 57.2 °F 46.4 °F 67% 30.10 in 10.0 mi NNW 3.5 mph - N/A   Scattered Clouds
10:47 AM 62.6 °F 46.4 °F 55% 30.11 in 10.0 mi NW 4.6 mph - N/A   Scattered Clouds
11:47 AM 66.2 °F 46.4 °F 49% 30.10 in 10.0 mi NW 4.6 mph - N/A   Scattered Clouds
12:50 PM 68.0 °F 46.4 °F 46% 30.08 in 10.0 mi NNE 4.6 mph - N/A   Scattered Clouds
1:45 PM 71.6 °F 46.4 °F 41% 30.06 in 10.0 mi Calm Calm - N/A   Scattered Clouds
2:48 PM 75.2 °F 46.4 °F 36% 30.04 in 10.0 mi North 3.5 mph - N/A   Scattered Clouds
3:45 PM 75.2 °F 46.4 °F 36% 30.02 in 10.0 mi NNW 5.8 mph - N/A   Scattered Clouds
4:45 PM 75.2 °F 44.6 °F 34% 30.01 in 10.0 mi Calm Calm - N/A   Scattered Clouds
6:55 PM 73.4 °F 44.6 °F 36% 30.00 in 10.0 mi NNW 4.6 mph - N/A   Scattered Clouds
7:45 PM 71.6 °F 42.8 °F 35% 30.00 in 10.0 mi NNW 3.5 mph - N/A   Scattered Clouds
8:45 PM 66.2 °F 44.6 °F 46% 30.01 in 10.0 mi Calm Calm - N/A   Scattered Clouds
9:55 PM 59.0 °F 46.4 °F 63% 30.03 in 10.0 mi Calm Calm - N/A   Scattered Clouds
11:45 PM 55.4 °F 46.4 °F 72% 30.02 in 10.0 mi ENE 3.5 mph - N/A   Scattered Clouds